[[{"header":{"parameterUnit":"m.s-1","parameterCategory":1,"la1":30.2991,"la2":30.254,"lo1":-89.0895,"lo2":-89.0444,"dy":0.0017,"dx":0.0017,"nx":28,"ny":28,"refTime":"2023-04-01T21:00:00:Z","depth":0,"parameterNumber":2,"parameterNumberName":"U-component_of_WINDS"},"data":[0,0,0,0,0,0,0,0,0,0,0,0,0,0,0,0,0,0,0,0,0,0,0,0,0,0,0,0,0,0,0,0,0,0,0,0,0,0,0,0,0,0,0,0,0,0,0,0,0,0,0,0,0,0,0,0,0,0,-2.002,-2.002,0,-1.998,-1.998,-1.9979,-1.9936,-1.9935,-1.9934,-1.9934,-1.9893,-1.9892,-1.9892,0,0,0,0,0,0,0,0,0,0,0,0,0,-2.0058,-2.0058,-2.0021,-2.002,-2.0019,-1.998,-1.998,-1.9979,-1.9936,-1.9935,-1.9934,-1.9934,-1.9893,-1.9892,-1.9892,0,0,0,0,0,0,0,0,0,0,0,0,0,-2.0032,-2.0057,-2.0021,-1.9993,-1.999,-1.998,-1.998,-1.9979,-1.9936,-1.9935,-1.9934,-1.9933,-1.9893,-1.9892,-1.9892,-1.9906,0,0,-1.9889,-1.9889,0,0,0,0,0,0,0,0,-2.0034,-2.0031,-1.9998,-1.9995,-1.9992,-1.9962,-1.9978,-1.9954,-1.9936,-1.9957,-1.9934,-1.9933,-1.9917,-1.9914,-1.9908,-1.9904,-1.9902,-1.9889,-1.9889,-1.9888,-1.9888,0,0,0,0,0,0,0,-2.0036,-2.0032,-2.0005,-1.9997,-1.9994,-1.9982,-1.9977,-1.9973,-1.9942,-1.9955,-1.9951,-1.9947,-1.9915,-1.9909,-1.9907,-1.9901,-1.9889,-1.9889,-1.9888,-1.9888,-1.9903,-1.9903,0,0,0,0,0,0,-2.0042,-2.0034,-2.0006,-2.0003,-2.0011,-1.9982,-1.9977,-1.9973,-1.9942,-1.9937,-1.9948,-1.9945,-1.9911,-1.9908,-1.9905,-1.9917,-1.9888,-1.9888,-1.9887,-1.9902,-1.9903,-1.9904,0,0,0,0,0,0,-2.0043,-2.004,-2.0007,-2.0018,-2.0013,-1.9983,-1.9978,-1.9972,-1.9967,-1.9937,-1.9931,-1.9948,-1.991,-1.9907,-1.9905,-1.9915,-1.9887,-1.9887,-1.9901,-1.9902,-1.9903,-1.9943,0,0,0,0,0,0,-2.0044,-2.004,-2.0046,-2.0018,-2.0012,-2.0009,-1.9979,-1.9972,-1.9965,-1.9961,-1.9936,-1.9931,-1.9909,-1.9906,-1.9904,-1.9914,-1.9886,-1.99,-1.9901,-1.9903,-1.9941,-1.9945,-1.995,0,0,0,0,0,-2.0045,-2.0059,-2.0046,-2.0043,-2.0019,-2.0009,-2.0006,-1.9981,-1.9966,-1.9971,-1.9952,-1.9931,-1.9915,-1.9907,-1.9904,-1.9913,-1.9899,-1.9901,-1.9903,-1.9939,-1.9944,-1.995,0,0,0,0,0,0,-2.0089,-2.0055,-2.004,-2.0046,-2.0031,-2.0002,-2.0007,-1.9988,-1.9977,-1.9974,-1.9943,-1.9938,-1.9939,-1.9926,-1.9918,-1.9924,-1.9904,-1.9905,-1.9932,-1.9937,-1.9942,-1.9944,-1.9885,0,0,0,0,0,-2.0099,-2.0095,-2.0065,-2.0073,-2.0066,-2.0038,-2.0033,-2.0015,-1.9998,-1.9991,-1.9972,-1.9956,-1.9947,-1.9942,-1.9932,-1.9939,-1.9931,-1.9944,-1.9948,-1.9952,-1.9953,-1.9953,-1.9957,-1.991,-1.991,-1.991,0,0,-2.0121,-2.0101,-2.0101,-2.0081,-2.0067,-2.0062,-2.0033,-2.003,-2.0025,-1.9991,-1.9987,-1.9973,-1.9953,-1.9955,-1.9955,-1.9944,-1.9965,-1.9954,-1.9958,-1.9957,-1.9955,-1.996,-1.9964,-1.9911,-1.9911,-1.9911,0,0,-2.0156,-2.0142,-2.0146,-2.0132,-2.0111,-2.0092,-2.0093,-2.0066,-2.0055,-2.0051,-2.0024,-2.0018,-2.0004,-1.999,-1.9981,-2.0009,-1.9989,-2.0007,-2.003,-2.003,-2.0034,-2.0037,-2.0045,-2.0048,-2.0008,-2.0009,-2.0009,0,-2.0185,-2.0177,-2.015,-2.0147,-2.0138,-2.0107,-2.0109,-2.0097,-2.0074,-2.0068,-2.0056,-2.0036,-2.0021,-2.0017,-2.0024,-2.0019,-2.0017,-2.0009,-2.0036,-2.0039,-2.0041,-2.0048,-2.0051,-2.0011,-2.001,-2.001,-2.001,0,-2.0212,-2.0207,-2.0212,-2.0189,-2.0181,-2.0181,-2.0153,-2.0148,-2.013,-2.0112,-2.0108,-2.0088,-2.0072,-2.007,-2.0053,-2.0064,-2.0058,-2.0042,-2.0021,-2.0048,-2.0054,-2.0057,-2.0014,-2.0013,-2.0012,-2.0012,0,0,-2.0275,-2.0236,-2.0238,-2.0226,-2.02,-2.0195,-2.0192,-2.0176,-2.0172,-2.0157,-2.0153,-2.014,-2.0124,-2.0114,-2.0095,-2.0095,-2.0116,-2.0079,-2.0078,-2.0084,-2.0123,-2.0134,-2.0138,-2.0102,-2.0103,-2.0103,-2.0124,0,-2.0304,-2.0298,-2.0272,-2.0273,-2.0266,-2.0235,-2.0233,-2.0216,-2.0198,-2.019,-2.017,-2.0161,-2.0142,-2.0135,-2.0134,-2.0113,-2.0123,-2.0112,-2.0097,-2.0097,-2.0101,-2.0141,-2.0154,-2.0175,-2.0126,-2.0127,-2.0127,0,-2.0337,-2.0323,-2.0323,-2.0295,-2.0291,-2.0289,-2.0271,-2.0264,-2.0243,-2.023,-2.0218,-2.0196,-2.019,-2.0172,-2.0162,-2.0155,-2.0148,-2.0136,-2.0137,-2.0133,-2.0113,-2.0137,-2.0181,-2.0183,-2.0131,-2.0131,-2.013,0,-2.038,-2.0361,-2.0358,-2.0349,-2.0316,-2.0315,-2.0302,-2.028,-2.0271,-2.0256,-2.0249,-2.0234,-2.0225,-2.0212,-2.0186,-2.0176,-2.0179,-2.0159,-2.0167,-2.0167,-2.0168,-2.0168,-2.0209,-2.0166,-2.0166,-2.0166,-2.0166,0,-2.0414,-2.0415,-2.0376,-2.0374,-2.0373,-2.0344,-2.0344,-2.0327,-2.0308,-2.0301,-2.0273,-2.0267,-2.0234,-2.0224,-2.0204,-2.0197,-2.0194,-2.0183,-2.0177,-2.0184,-2.0185,-2.0178,-2.0175,-2.0167,-2.0167,-2.0166,-2.0166,0,-2.0461,-2.0436,-2.043,-2.0399,-2.0391,-2.0391,-2.0364,-2.036,-2.0341,-2.0332,-2.0329,-2.0298,-2.0284,-2.0257,-2.0237,-2.0223,-2.0221,-2.0212,-2.0227,-2.0224,-2.0232,-2.0231,-2.0268,-2.0271,-2.0228,-2.0229,-2.0229,0,-2.0484,-2.0484,-2.0452,-2.0446,-2.0433,-2.0423,-2.0413,-2.0384,-2.0375,-2.035,-2.0348,-2.0333,-2.0318,-2.0298,-2.0273,-2.0256,-2.0246,-2.026,-2.0243,-2.0249,-2.0243,-2.0243,-2.0242,-2.0263,-2.0264,-2.0264,-2.0265,0,-2.0527,-2.0513,-2.0501,-2.0483,-2.0473,-2.0458,-2.0441,-2.0437,-2.0403,-2.0395,-2.038,-2.0369,-2.0347,-2.033,-2.031,-2.0295,-2.0273,-2.027,-2.0271,-2.0278,-2.0286,-2.0279,-2.0236,-2.0269,-2.0269,-2.0269,-2.0268,-2.0268,-2.0561,-2.0558,-2.0535,-2.0521,-2.0505,-2.049,-2.0484,-2.0463,-2.045,-2.043,-2.0413,-2.0399,-2.0376,-2.0346,-2.0332,-2.032,-2.031,-2.0312,-2.0312,-2.0312,-2.0314,-2.0289,-2.0317,-2.0316,-2.0316,-2.0316,-2.0316,0,-2.06,-2.0583,-2.0571,-2.0548,-2.0537,-2.0518,-2.0498,-2.0489,-2.0478,-2.0458,-2.0444,-2.0426,-2.041,-2.0383,-2.0364,-2.036,-2.0349,-2.0356,-2.0355,-2.0351,-2.0325,-2.0326,-2.0364,-2.0364,-2.0364,-2.0364,-2.0364,-2.0364,-2.0619,-2.0612,-2.0596,-2.0581,-2.0564,-2.055,-2.054,-2.0524,-2.0508,-2.0489,-2.0476,-2.0458,-2.0435,-2.0414,-2.0398,-2.039,-2.0384,-2.0393,-2.0382,-2.0358,-2.0353,-2.0349,-2.0349,-2.0392,-2.0392,-2.0408,-2.0409,-2.0409]},{"header":{"parameterUnit":"m.s-1","parameterCategory":1,"la1":30.2991,"la2":30.254,"lo1":-89.0895,"lo2":-89.0444,"dy":0.0017,"dx":0.0017,"nx":28,"ny":28,"refTime":"2023-04-01T21:00:00:Z","depth":0,"parameterNumber":3,"parameterNumberName":"V-component_of_WINDS"},"data":[0,0,0,0,0,0,0,0,0,0,0,0,0,0,0,0,0,0,0,0,0,0,0,0,0,0,0,0,0,0,0,0,0,0,0,0,0,0,0,0,0,0,0,0,0,0,0,0,0,0,0,0,0,0,0,0,0,0,4.7357,4.7357,0,4.7389,4.739,4.739,4.7375,4.7375,4.7374,4.7373,4.7404,4.7406,4.7407,0,0,0,0,0,0,0,0,0,0,0,0,0,4.7284,4.7285,4.7357,4.7357,4.7357,4.7389,4.739,4.739,4.7376,4.7375,4.7374,4.7373,4.7404,4.7405,4.7407,0,0,0,0,0,0,0,0,0,0,0,0,0,4.7316,4.7286,4.7357,4.7354,4.7354,4.7389,4.739,4.739,4.7376,4.7375,4.7373,4.7372,4.7403,4.7405,4.7408,4.7446,0,0,4.7415,4.7416,0,0,0,0,0,0,0,0,4.7314,4.7318,4.7354,4.7354,4.7354,4.7377,4.7375,4.7409,4.7376,4.7367,4.7373,4.7372,4.7396,4.7399,4.7408,4.7448,4.7449,4.7415,4.7416,4.7418,4.7418,0,0,0,0,0,0,0,4.7312,4.7317,4.7369,4.7355,4.7355,4.7352,4.7355,4.7382,4.7388,4.7368,4.7367,4.7371,4.7396,4.7405,4.7408,4.7449,4.7415,4.7417,4.7419,4.7419,4.753,4.7531,0,0,0,0,0,0,4.731,4.7315,4.7368,4.737,4.7331,4.7354,4.7358,4.7371,4.7388,4.7389,4.7372,4.7371,4.7402,4.7405,4.7409,4.746,4.7417,4.742,4.7421,4.7528,4.753,4.7532,0,0,0,0,0,0,4.7308,4.7314,4.7367,4.7343,4.7349,4.7357,4.7372,4.7372,4.7382,4.7391,4.7392,4.7381,4.7401,4.7406,4.7439,4.746,4.7421,4.7423,4.7526,4.7529,4.7531,4.7558,0,0,0,0,0,0,4.7306,4.7314,4.7328,4.7343,4.7351,4.7395,4.7373,4.7374,4.7386,4.7384,4.7399,4.74,4.74,4.7435,4.7441,4.7463,4.7425,4.7524,4.7527,4.753,4.7555,4.7561,4.7566,0,0,0,0,0,4.7303,4.7332,4.7328,4.7335,4.7368,4.7397,4.7401,4.7401,4.7388,4.7403,4.741,4.74,4.7457,4.7439,4.7445,4.7468,4.7523,4.7527,4.753,4.7553,4.756,4.7566,0,0,0,0,0,0,4.7316,4.7334,4.733,4.7364,4.738,4.7394,4.7412,4.7408,4.7426,4.7423,4.7422,4.7426,4.7461,4.7467,4.7447,4.7509,4.7488,4.7493,4.7504,4.751,4.7515,4.7513,4.7427,0,0,0,0,0,4.7324,4.7345,4.7359,4.7389,4.7397,4.7404,4.7416,4.7416,4.7431,4.7437,4.7445,4.7461,4.7483,4.7497,4.7517,4.7557,4.7562,4.7576,4.7581,4.7585,4.759,4.7616,4.7624,4.7543,4.7543,4.7543,0,0,4.7338,4.735,4.7363,4.7392,4.7403,4.7428,4.7409,4.7433,4.7452,4.744,4.7473,4.7481,4.7498,4.7536,4.7553,4.7542,4.7614,4.759,4.7593,4.7595,4.7621,4.7628,4.7635,4.7545,4.7545,4.7544,0,0,4.7376,4.7387,4.7415,4.7428,4.7448,4.7453,4.746,4.7477,4.7483,4.7516,4.751,4.7532,4.7568,4.7582,4.7594,4.7646,4.7639,4.7653,4.768,4.7706,4.7713,4.7719,4.774,4.7748,4.7657,4.7657,4.7657,0,4.7391,4.7427,4.7429,4.7457,4.7471,4.7465,4.7495,4.7508,4.7532,4.7543,4.7531,4.7581,4.7592,4.7635,4.7649,4.7658,4.7668,4.7651,4.7712,4.7718,4.7723,4.7744,4.7752,4.7659,4.7659,4.7658,4.7658,0,4.7447,4.7472,4.7492,4.752,4.7537,4.7564,4.7573,4.759,4.759,4.7597,4.7635,4.7648,4.7674,4.7684,4.7682,4.7729,4.7723,4.7712,4.769,4.7732,4.7752,4.776,4.7661,4.7661,4.766,4.766,0,0,4.7489,4.7523,4.753,4.7545,4.7569,4.7589,4.762,4.7647,4.7663,4.7682,4.7709,4.7743,4.7735,4.7749,4.7749,4.7772,4.7818,4.7759,4.776,4.7772,4.7875,4.7885,4.7894,4.7814,4.7815,4.7817,4.7875,0,4.7532,4.7586,4.7592,4.764,4.7666,4.7664,4.7691,4.771,4.7719,4.7744,4.7753,4.7779,4.7765,4.7774,4.7797,4.7807,4.7839,4.7803,4.7841,4.7842,4.7838,4.7904,4.7912,4.7966,4.7882,4.7884,4.7885,0,4.7587,4.7612,4.7664,4.769,4.7701,4.7725,4.7754,4.7777,4.78,4.7805,4.7824,4.7824,4.7858,4.7836,4.7884,4.786,4.7876,4.7885,4.7887,4.7891,4.7866,4.7911,4.7983,4.7992,4.7896,4.7895,4.7894,0,4.7618,4.7663,4.7702,4.7714,4.7745,4.7763,4.7776,4.7798,4.7816,4.7842,4.7854,4.7882,4.7898,4.792,4.7929,4.7912,4.7978,4.7956,4.7985,4.7986,4.7999,4.7998,4.8076,4.8007,4.8007,4.8007,4.8007,0,4.7665,4.7698,4.7717,4.774,4.7778,4.7787,4.7824,4.7837,4.7858,4.7886,4.7885,4.7911,4.792,4.7948,4.7954,4.7996,4.8002,4.8009,4.8011,4.801,4.801,4.8021,4.8018,4.8009,4.8008,4.8008,4.8008,0,4.7704,4.7718,4.7761,4.7789,4.7797,4.7824,4.7848,4.7872,4.7884,4.7919,4.7928,4.7946,4.798,4.7991,4.803,4.8035,4.8085,4.8082,4.8077,4.8078,4.8108,4.8106,4.8197,4.8211,4.8131,4.8132,4.8132,0,4.7734,4.776,4.7792,4.7812,4.7828,4.7858,4.7878,4.7889,4.791,4.7943,4.7964,4.7998,4.8026,4.8081,4.8097,4.8129,4.8129,4.8159,4.8133,4.8134,4.8133,4.8132,4.8136,4.8163,4.8164,4.8165,4.8165,0,4.7786,4.7794,4.7823,4.7857,4.7882,4.7908,4.7934,4.795,4.7965,4.7989,4.8026,4.8048,4.8092,4.8127,4.8161,4.8176,4.8175,4.8174,4.8183,4.8183,4.8181,4.8186,4.8093,4.8171,4.8171,4.817,4.817,4.817,4.7823,4.7848,4.7877,4.7912,4.7933,4.7959,4.7985,4.8002,4.8033,4.8071,4.8076,4.8116,4.8144,4.819,4.8207,4.824,4.8231,4.8243,4.8247,4.825,4.8255,4.8175,4.8246,4.8246,4.8245,4.8245,4.8245,0,4.7878,4.7898,4.793,4.7968,4.7997,4.7996,4.8026,4.805,4.8086,4.8112,4.8142,4.8187,4.8223,4.8245,4.8281,4.8304,4.8304,4.8313,4.8312,4.8317,4.8258,4.8248,4.8312,4.8312,4.8312,4.8312,4.8312,4.8312,4.7909,4.7954,4.7966,4.8022,4.8042,4.8083,4.8101,4.8127,4.8149,4.82,4.8231,4.8246,4.8272,4.8312,4.8346,4.8352,4.8366,4.8376,4.8382,4.8327,4.832,4.8313,4.8304,4.8379,4.8379,4.8438,4.8438,4.8439]}]]